Orbital Elements at Epoch 2459200.5 (2020-Dec-17.0) TDB
Reference: JPL 15 (heliocentric ecliptic J2000)
Element | Value | Uncertainty (1-sigma) | Units |
e | .1640813505520192 | 4.932e-08 | |
a | 2.309818437954389 | 1.5347e-08 | au |
q | 1.930820309124878 | 1.1577e-07 | au |
i | 5.279011385471443 | 5.6415e-06 | deg |
node | 354.5129466371251 | 5.4229e-05 | deg |
peri | 286.4533471343196 | 5.7109e-05 | deg |
M | 312.5109064605786 | 1.8937e-05 | deg |
tp | 2459369.643990220533 (2021-Jun-04.14399022) | 6.8395e-05 | TDB |
period | 1282.227811504647 3.51 | 1.2779e-05 3.499e-08 | d yr |
n | .28076134113606 | 2.7982e-09 | deg/d |
Q | 2.6888165667839 | 1.7865e-08 | au |
|
| | Orbit Determination Parameters
Additional Information
|